Flag for San Marino Weather past 2 weeks in San Marino, San Marino

Now
52 °F

Passing clouds.


Feels Like: 51 °F
Forecast: 38 / 44 °F
Wind: 3 mph from Southwest

Location: Cervia Airport

Current Time: Apr 18, 2015 at 5:36:27 AM

Latest Report: Apr 18, 2015 at 4:55 AM


Visibility: N/A

Pressure: 29.89 "Hg

Humidity: 94%

Dew point: 50 °F

Location of San MarinoLocation

Historic Weather in San Marino — Graph

°F

San Marino temperature yesterday

Maximum temperature yesterday: 66 °F (at 1:55 PM)
Minimum temperature yesterday: 54 °F (at 6:55 AM)
Average temperature yesterday: 59 °F

Past Weeks' High & Low Weather Summary

 TemperatureHumidityPressure
High72 °F (Apr 13, 2:55 PM)100% (Apr 4, 5:55 AM)30.42 "Hg (Apr 4, 5:55 AM)
Low36 °F (Apr 8, 1:55 AM)30% (Apr 8, 2:55 PM)29.71 "Hg (Apr 5, 1:55 AM)
Average53 °F78%30.17 "Hg
* Reported Apr 3 3:55 AM — Apr 18 3:55 AM, San Marino, Weather by CustomWeather, © 2015

Note: Actual official high and low records may vary slightly from our data, if they occured in-between our weather recording intervals... More about our weather records

Advertising

San Marino weather history for previous 24 hours

 ConditionsComfort  
Time TempWeatherWind HumidityBarometerVisibility
3:55 AM
Sat, Apr 18
54 °FClear.3 mph88%29.89 "Hg10 mi
2:55 AM54 °FClear.7 mph88%29.92 "Hg10 mi
1:55 AM54 °FClear.2 mph88%29.92 "Hg10 mi
12:55 AM54 °FClear.2 mph94%29.92 "Hg10 mi
11:55 PM
Fri, Apr 17
54 °FClear.No wind94%29.92 "Hg10 mi
10:55 PM54 °FClear.No wind94%29.92 "Hg10 mi
9:55 PM55 °FClear.1 mph94%29.92 "Hg10 mi
8:55 PM59 °FSunny.1 mph94%29.92 "Hg10 mi
7:55 PM59 °FSunny.No wind94%29.92 "Hg10 mi
6:55 PM61 °FPassing clouds.No wind94%29.92 "HgN/A
5:55 PM61 °FLight rain. Scattered clouds.7 mph100%29.92 "HgN/A
4:55 PM61 °FLight rain. Broken clouds.10 mph88%29.95 "HgN/A
3:55 PM64 °FBroken clouds.10 mph73%29.95 "HgN/A
2:55 PM64 °FScattered clouds.9 mph78%29.95 "HgN/A
1:55 PM66 °FScattered clouds.8 mph73%29.98 "HgN/A
12:55 PM61 °FScattered clouds.5 mph88%30.01 "HgN/A
11:55 AM61 °FScattered clouds.2 mph88%30.01 "HgN/A
10:55 AM59 °FScattered clouds.3 mph88%29.98 "HgN/A
9:55 AM59 °FScattered clouds.No wind88%30.01 "HgN/A
8:55 AM55 °FScattered clouds.3 mph88%30.01 "HgN/A
7:55 AM55 °FLight rain. Partly sunny.3 mph88%30.01 "HgN/A
6:55 AM54 °FLight rain. Passing clouds.7 mph100%30.01 "Hg5 mi
5:55 AM55 °FClear.8 mph100%30.04 "Hg10 mi
Weather by CustomWeather, © 2015

See weather overviewHow to use our weather pages